Dewpoint
54 55 55 56 56 56 56 57 57 57 57 58 58 58 59 59 57 48 33 37 38 57 51 16 12 9 9 12 15 17 18 16 19 18 37 35 40 49 49 51 55 59 59 62 62
54 54 54 55 55 56 56 56 57 57 57 57 57 58 58 58 44 35 50 57 59 61 15 14 9 6 4 4 7 9 12 11 10 16 18 32 38 45 48 53 57 59 63 64 61
54 54 54 54 54 55 55 55 56 56 57 57 57 57 57 55 41 34 59 60 59 53 15 10 8 7 4 2 2 3 4 4 7 13 15 24 41 43 44 50 54 56 61 61 61
54 53 53 53 54 54 54 55 55 56 56 56 56 57 57 47 32 41 63 62 62 32 21 12 9 8 7 6 2 1 0 1 3 7 13 22 44 43 43 54 57 59 59 60 59
53 53 53 53 54 54 54 54 55 55 55 55 56 57 50 39 32 50 67 59 32 28 22 14 10 11 9 5 4 4 2 -0 -0 4 14 38 46 50 57 59 59 59 59 58 58
54 52 52 52 53 54 54 55 55 54 55 55 56 56 46 32 32 43 39 32 19 26 22 14 9 12 12 7 7 5 8 6 5 7 11 35 52 53 56 58 58 58 58 58 58
53 53 52 53 53 54 54 54 54 54 56 56 56 49 37 29 30 35 30 23 23 23 19 12 20 19 17 13 8 14 15 21 25 16 12 44 48 50 55 56 57 57 57 57 57
52 52 52 52 52 53 54 54 54 55 56 56 56 46 33 23 28 32 24 21 21 21 19 20 21 20 19 18 14 22 21 25 27 19 32 41 34 54 55 55 55 55 55 55 55
52 52 52 51 52 53 53 52 54 58 55 56 50 42 28 38 27 31 25 19 19 21 24 24 22 19 17 17 12 16 17 23 32 32 35 37 48 53 55 54 54 54 54 53 53
51 51 52 52 52 52 52 52 55 57 54 46 37 35 28 21 26 29 28 25 23 22 23 22 18 17 16 10 9 12 11 16 31 34 36 34 49 53 54 54 54 54 53 52 51
50 51 51 52 52 52 49 43 42 43 39 25 28 21 16 23 31 31 28 27 24 24 20 20 14 13 11 14 12 14 11 13 17 31 32 30 51 53 55 54 53 54 52 52 50
50 50 51 52 52 51 48 29 24 29 27 26 24 25 21 24 24 26 28 25 25 22 19 18 15 15 11 10 11 17 15 15 31 38 36 29 47 52 54 54 53 53 52 51 49
50 50 51 51 51 50 29 21 26 30 27 21 18 24 24 25 25 25 26 25 23 21 16 16 13 10 11 11 12 17 16 28 25 34 34 33 39 48 51 53 53 53 52 51 50
50 50 50 50 43 30 22 33 30 32 27 21 18 19 23 25 25 24 26 23 21 18 16 15 13 14 14 12 14 17 16 25 33 29 24 34 25 45 47 50 52 52 52 50 50
50 50 50 49 42 24 25 27 31 37 20 20 18 21 18 22 21 23 25 22 20 16 17 13 14 16 14 14 13 14 19 24 29 27 30 37 25 27 45 48 49 50 51 49 50
49 49 49 41 45 36 30 27 31 27 20 17 22 20 18 18 18 22 22 21 19 17 16 16 17 15 15 15 15 26 22 27 29 26 23 23 28 35 39 43 46 49 50 50 49
48 48 48 42 27 27 34 30 26 21 18 13 22 20 19 16 18 21 22 22 20 20 20 18 20 17 19 16 19 26 28 24 22 17 13 24 23 21 41 40 36 48 49 50 50
47 47 48 40 36 34 34 28 27 21 20 21 23 21 20 17 18 19 23 20 21 20 17 16 18 17 19 19 22 23 25 19 17 21 18 22 18 28 39 39 40 42 50 51 50
46 38 37 46 46 40 27 20 24 25 20 16 18 23 22 17 18 19 21 20 19 22 23 19 20 18 17 18 21 22 19 22 23 23 19 15 20 32 34 37 41 42 46 50 50
42 40 39 45 50 40 23 21 19 22 22 23 23 22 23 21 19 21 20 20 19 19 25 26 24 20 20 20 19 23 22 22 19 21 20 14 20 21 31 34 39 41 46 49 50
43 30 44 45 46 36 20 17 15 14 24 26 23 22 27 26 22 20 21 20 19 20 21 26 30 26 23 22 19 19 20 24 27 30 24 17 21 29 28 29 34 37 43 47 47
39 25 39 46 39 34 26 21 25 16 20 24 26 29 29 30 29 24 22 24 20 21 22 25 32 28 24 22 21 27 23 26 24 27 27 27 22 28 30 27 31 31 41 43 47
32 30 41 45 33 31 31 26 23 22 23 25 26 25 30 31 34 29 25 20 21 22 26 29 31 29 28 30 28 27 25 30 35 34 33 26 23 28 29 28 30 32 36 41 46
35 25 35 37 36 40 38 35 31 26 26 23 25 27 28 30 32 35 28 26 25 23 49 43 36 32 27 29 26 27 24 25 30 32 26 24 25 28 30 32 33 37 37 40 45
29 30 41 25 32 36 39 38 32 30 31 32 29 27 30 33 31 31 34 30 32 41 36 40 34 31 28 27 26 24 23 24 26 28 30 26 24 25 28 30 31 39 40 41 44
27 30 28 21 27 29 33 35 35 33 37 34 40 32 38 36 34 33 41 40 33 34 37 42 35 32 30 25 24 27 35 24 25 24 26 26 26 30 37 35 32 39 41 42 44
33 32 33 29 21 22 28 37 36 38 38 37 38 37 37 40 45 45 45 45 44 37 42 42 38 34 28 26 25 24 23 25 27 28 29 29 30 33 35 34 37 42 43 42 44
Lifted_Index
13 13 13 13 13 13 13 12 12 12 11 11 11 11 11 11 11 10 10 10 11 11 11 10 10 9 8 7 5 4 2 0 -1 -1 -1 -2 -3 -3 -3 -4 -5 -5 -5 -5 -5
14 14 13 13 13 13 13 12 12 12 12 11 11 11 11 11 10 9 9 10 11 12 11 10 9 8 7 6 5 4 2 1 -1 -1 -1 -2 -3 -3 -3 -4 -5 -5 -6 -5 -5
14 14 14 14 14 13 13 13 13 12 12 12 12 11 11 10 8 7 8 10 11 11 11 9 8 8 7 6 5 4 3 1 0 0 -0 -1 -3 -3 -4 -4 -5 -5 -6 -5 -5
14 14 14 14 14 14 14 13 13 13 13 12 12 11 10 9 6 6 7 9 11 10 10 9 8 7 6 5 5 4 3 2 2 2 1 -1 -3 -4 -4 -5 -5 -5 -5 -5 -5
15 15 15 15 15 14 14 14 14 13 13 12 12 11 9 7 6 5 6 9 10 10 9 8 7 6 5 4 4 4 3 3 3 3 2 -1 -3 -4 -5 -5 -5 -5 -5 -5 -5
15 15 15 15 15 15 14 14 14 13 13 12 11 10 8 7 6 6 7 8 9 9 8 8 7 6 5 4 4 4 4 4 4 3 2 -0 -3 -4 -5 -5 -5 -5 -5 -4 -4
16 16 16 15 15 15 14 14 14 13 12 12 11 9 8 7 7 7 8 9 9 9 8 8 7 6 5 4 4 4 4 4 4 3 2 -0 -2 -4 -4 -5 -5 -5 -4 -4 -4
16 16 16 15 15 14 14 14 13 12 11 11 10 9 8 8 7 7 8 9 9 8 8 8 7 6 5 4 4 4 3 2 2 2 1 -1 -2 -4 -5 -5 -5 -5 -4 -3 -3
16 16 16 15 15 14 14 13 12 11 10 10 9 8 8 8 7 7 8 8 8 8 8 8 7 6 5 4 3 3 1 1 0 1 0 -1 -3 -4 -4 -5 -5 -5 -4 -3 -2
16 16 16 15 15 14 13 12 10 9 9 9 8 7 7 7 7 7 7 7 7 7 7 7 6 6 5 3 2 1 0 -0 -1 -1 -1 -2 -4 -4 -4 -5 -5 -5 -4 -3 -2
16 16 16 15 15 14 12 10 8 8 8 7 7 7 7 7 6 6 7 7 6 6 6 6 5 4 4 2 1 0 -0 -1 -1 -1 -1 -2 -4 -4 -4 -4 -5 -5 -4 -3 -2
16 16 15 15 14 13 11 10 8 8 7 7 7 7 7 6 6 6 6 6 6 5 5 5 4 3 3 2 1 1 -0 -1 -1 -1 -1 -2 -4 -4 -4 -4 -4 -4 -4 -3 -2
16 15 15 14 13 12 11 10 9 8 7 7 7 7 6 6 6 6 6 6 5 5 4 3 3 3 3 3 2 1 0 -1 -1 -0 -1 -2 -3 -4 -4 -4 -4 -4 -4 -2 -2
16 15 14 13 12 11 10 9 9 7 6 6 6 7 6 6 6 5 5 5 5 4 4 3 3 3 3 3 2 1 -0 -1 -1 -0 -0 -1 -2 -3 -4 -4 -4 -4 -4 -2 -2
16 15 14 13 12 11 10 9 8 6 4 4 6 6 6 6 6 5 5 5 5 4 3 3 3 3 3 2 1 0 -0 -1 -1 -0 -1 -1 -1 -2 -3 -4 -4 -4 -3 -2 -1
15 15 13 12 11 10 9 9 7 5 3 3 5 5 6 5 5 5 5 5 5 4 3 2 2 3 2 1 1 0 -0 -1 -1 -1 -1 -1 -1 -2 -2 -3 -3 -3 -3 -2 -2
14 13 12 11 10 9 9 7 6 4 3 3 4 4 5 5 5 5 5 5 4 4 3 2 2 2 2 1 1 0 -0 -1 -1 -1 -0 -0 -0 -1 -2 -2 -2 -3 -3 -2 -2
12 11 9 8 8 8 8 6 4 3 3 3 3 3 3 3 4 4 4 4 4 3 2 1 1 2 1 1 0 0 -0 -0 -0 -0 -0 -0 -0 -1 -1 -1 -1 -2 -3 -3 -2
11 9 6 5 5 6 6 6 4 3 2 3 3 2 2 2 2 3 3 3 3 3 1 0 0 1 1 1 0 -0 -0 -0 -0 -0 -0 -0 -0 -1 -1 -1 -1 -2 -3 -2 -2
9 7 4 3 3 4 5 5 4 3 3 3 2 1 1 1 1 1 2 2 2 2 2 0 -0 1 1 1 0 0 -0 -0 -0 -0 -0 -0 -0 -0 -1 -1 -1 -1 -2 -2 -2
7 5 3 2 2 3 4 4 4 3 3 3 2 1 0 0 0 0 0 1 2 2 1 1 -0 0 1 1 0 0 -0 -0 -0 -0 -0 -0 -0 -0 -0 -0 -0 -1 -1 -1 -1
6 5 3 2 1 1 2 2 3 3 3 3 2 1 1 0 -0 -0 -0 0 1 1 1 1 -0 -0 -0 0 -0 -0 -0 -0 -1 -1 -1 -1 -0 0 0 0 0 0 -0 -1 -1
6 4 2 1 0 -0 -0 1 2 2 2 2 2 1 1 0 -0 -0 -1 -0 0 1 1 0 -0 -0 -1 -0 -0 -0 -0 -1 -1 -1 -1 -1 -0 0 0 1 1 1 0 -0 -1
5 4 2 1 1 -0 -1 -0 0 0 1 1 1 1 0 0 -0 -1 -1 -1 -0 1 1 0 -0 -0 -1 -1 -0 -0 -0 -1 -1 -1 -1 -1 -0 -0 -0 0 0 0 0 -0 -0
6 5 4 3 2 1 0 -1 -1 -1 -1 -0 0 -0 -0 -0 -1 -2 -2 -1 -1 -0 -0 -0 -1 -1 -1 -0 -0 -0 -0 -0 -1 -1 -1 -1 -1 -1 -1 -0 0 0 -0 -0 -0
7 7 6 6 4 3 1 -0 -1 -1 -1 -1 -1 -1 -1 -1 -2 -2 -2 -2 -1 -1 -1 -1 -1 -1 -1 -1 -0 -0 -0 -0 -1 -1 -1 -1 -1 -1 -0 0 0 -0 -0 -0 -0
8 8 7 7 5 4 2 0 -1 -1 -1 -2 -2 -1 -2 -2 -2 -2 -2 -2 -2 -2 -2 -2 -2 -1 -1 -1 -1 -0 -0 -0 -1 -1 -1 -2 -1 -1 0 1 1 -0 -0 -0 -0